Satellite: ORSTED
Catalog number: 25635
Epoch time:      102361.06249181
Element set:     791 
Inclination:       96.4464 deg
RA of node:       355.1244 deg
Eccentricity:    0.0145836
Arg of perigee:   138.3458 deg
Mean anomaly:     222.8952 deg
Mean motion:   14.44747355 rev/day
Decay rate:    1.1619E-005 rev/day^2
Epoch rev:           20221
Checksum:              308

Satellite: SUNSAT
Catalog number: 25636
Epoch time:      102362.22282148
Element set:     652 
Inclination:       96.4495 deg
RA of node:       354.7701 deg
Eccentricity:    0.0149959
Arg of perigee:   140.6676 deg
Mean anomaly:     220.5526 deg
Mean motion:   14.42907914 rev/day
Decay rate:    5.6099E-006 rev/day^2
Epoch rev:           20226
Checksum:              325

Satellite: UOSAT 12
Catalog number: 25693
Epoch time:      102362.05325528
Element set:     560 
Inclination:       64.5574 deg
RA of node:       171.5131 deg
Eccentricity:    0.0015400
Arg of perigee:   316.2856 deg
Mean anomaly:      43.7026 deg
Mean motion:   14.76323147 rev/day
Decay rate:    7.0900E-006 rev/day^2
Epoch rev:           19850
Checksum:              286

Satellite: FENGYUN 1C
Catalog number: 25730
Epoch time:      102361.56793523
Element set:     727 
Inclination:       98.6373 deg
RA of node:        22.9524 deg
Eccentricity:    0.0014974
Arg of perigee:   150.7278 deg
Mean anomaly:     209.4734 deg
Mean motion:   14.11727293 rev/day
Decay rate:    2.4999E-007 rev/day^2
Epoch rev:           18715
Checksum:              337

Satellite: ASTRA 1H
Catalog number: 25785
Epoch time:      102354.00000000
Element set:     366 
Inclination:        0.0122 deg
RA of node:       319.8851 deg
Eccentricity:    0.0002995
Arg of perigee:    65.1991 deg
Mean anomaly:      82.5348 deg
Mean motion:    1.00273184 rev/day
Decay rate:    1.4299E-006 rev/day^2
Epoch rev:            1289
Checksum:              269

Satellite: TERRA
Catalog number: 25994
Epoch time:      102362.12406814
Element set:     542 
Inclination:       98.2062 deg
RA of node:        74.1368 deg
Eccentricity:    0.0000639
Arg of perigee:    83.3235 deg
Mean anomaly:     276.8036 deg
Mean motion:   14.57150562 rev/day
Decay rate:    1.1250E-005 rev/day^2
Epoch rev:           16103
Checksum:              281

Satellite: JAWSAT
Catalog number: 26061
Epoch time:      102361.55237027
Element set:     726 
Inclination:      100.2134 deg
RA of node:        43.7632 deg
Eccentricity:    0.0035591
Arg of perigee:    69.9129 deg
Mean anomaly:     290.5877 deg
Mean motion:   14.37760043 rev/day
Decay rate:    1.2860E-005 rev/day^2
Epoch rev:           15291
Checksum:              289

Satellite: OPAL
Catalog number: 26063
Epoch time:      102362.13983994
Element set:     684 
Inclination:      100.2192 deg
RA of node:        42.1878 deg
Eccentricity:    0.0037435
Arg of perigee:    73.9620 deg
Mean anomaly:     286.5670 deg
Mean motion:   14.35458373 rev/day
Decay rate:    4.2100E-006 rev/day^2
Epoch rev:           15286
Checksum:              308

Satellite: ASUSAT
Catalog number: 26065
Epoch time:      102361.54007554
Element set:     694 
Inclination:      100.2203 deg
RA of node:        41.6165 deg
Eccentricity:    0.0037887
Arg of perigee:    77.5525 deg
Mean anomaly:     282.9891 deg
Mean motion:   14.35483449 rev/day
Decay rate:    4.9099E-006 rev/day^2
Epoch rev:           15277
Checksum:              326

Satellite: GOES 11
Catalog number: 26352
Epoch time:      102360.33184884
Element set:     946 
Inclination:        0.0077 deg
RA of node:        26.6276 deg
Eccentricity:    0.0004821
Arg of perigee:   243.2419 deg
Mean anomaly:     192.6595 deg
Mean motion:    1.00259691 rev/day
Decay rate:   -3.4000E-007 rev/day^2
Epoch rev:             969
Checksum:              290

Satellite: EUTELSAT W4
Catalog number: 26369
Epoch time:      102359.81848933
Element set:     331 
Inclination:        0.0244 deg
RA of node:       337.3956 deg
Eccentricity:    0.0009168
Arg of perigee:   318.5766 deg
Mean anomaly:     128.8640 deg
Mean motion:    1.00272641 rev/day
Decay rate:    1.6699E-006 rev/day^2
Epoch rev:             950
Checksum:              318

Satellite: FENGYUN 2B
Catalog number: 26382
Epoch time:      102361.59939959
Element set:     755 
Inclination:        0.7035 deg
RA of node:       286.3521 deg
Eccentricity:    0.0000382
Arg of perigee:   220.0311 deg
Mean anomaly:     269.8745 deg
Mean motion:    1.00275126 rev/day
Decay rate:   -3.2099E-006 rev/day^2
Epoch rev:             918
Checksum:              413

Satellite: EUTELSAT W1
Catalog number: 26487
Epoch time:      102357.21690973
Element set:     332 
Inclination:        0.0212 deg
RA of node:       297.2934 deg
Eccentricity:    0.0004351
Arg of perigee:   331.7395 deg
Mean anomaly:     270.6232 deg
Mean motion:    1.00274544 rev/day
Decay rate:    8.3999E-007 rev/day^2
Epoch rev:             844
Checksum:              295

Satellite: ASTRA 2B
Catalog number: 26494
Epoch time:      102354.00000000
Element set:     249 
Inclination:        0.0178 deg
RA of node:       354.5658 deg
Eccentricity:    0.0005000
Arg of perigee:   302.8402 deg
Mean anomaly:     179.1852 deg
Mean motion:    1.00276704 rev/day
Decay rate:    1.7300E-006 rev/day^2
Epoch rev:             831
Checksum:              230

Satellite: NOAA 16
Catalog number: 26536
Epoch time:      102361.64462522
Element set:     140 
Inclination:       98.8955 deg
RA of node:       305.3385 deg
Eccentricity:    0.0011387
Arg of perigee:    94.5314 deg
Mean anomaly:     265.7178 deg
Mean motion:   14.11870382 rev/day
Decay rate:    2.7700E-006 rev/day^2
Epoch rev:           11668
Checksum:              317

Satellite: SAUDISAT 1A
Catalog number: 26545
Epoch time:      102360.04284062
Element set:     389 
Inclination:       64.5561 deg
RA of node:       199.4864 deg
Eccentricity:    0.0055474
Arg of perigee:   247.0887 deg
Mean anomaly:     112.4346 deg
Mean motion:   14.78807844 rev/day
Decay rate:    2.2059E-005 rev/day^2
Epoch rev:           12115
Checksum:              322

Satellite: UNISAT
Catalog number: 26547
Epoch time:      102360.79906840
Element set:     408 
Inclination:       64.5556 deg
RA of node:       199.5938 deg
Eccentricity:    0.0062377
Arg of perigee:   249.7278 deg
Mean anomaly:     109.7052 deg
Mean motion:   14.79470148 rev/day
Decay rate:    3.4559E-005 rev/day^2
Epoch rev:           12123
Checksum:              346

Satellite: TIUNGSAT 1
Catalog number: 26548
Epoch time:      102361.49927106
Element set:     393 
Inclination:       64.5548 deg
RA of node:       188.4850 deg
Eccentricity:    0.0048807
Arg of perigee:   245.3062 deg
Mean anomaly:     114.2952 deg
Mean motion:   14.81056334 rev/day
Decay rate:    2.7010E-005 rev/day^2
Epoch rev:           12150
Checksum:              297

Satellite: SAUDISAT 1B
Catalog number: 26549
Epoch time:      102362.07005788
Element set:     651 
Inclination:       64.5515 deg
RA of node:       197.1027 deg
Eccentricity:    0.0059705
Arg of perigee:   247.6111 deg
Mean anomaly:     111.8654 deg
Mean motion:   14.77760067 rev/day
Decay rate:    1.9069E-005 rev/day^2
Epoch rev:           12138
Checksum:              410

Satellite: AMSAT OSCAR 40
Catalog number: 26609
Epoch time:      102359.53285256
Element set:     297 
Inclination:        7.8593 deg
RA of node:        74.3667 deg
Eccentricity:    0.7931605
Arg of perigee:   126.0881 deg
Mean anomaly:     333.9833 deg
Mean motion:    1.25597577 rev/day
Decay rate:   -4.4000E-007 rev/day^2
Epoch rev:             989
Checksum:              348

Satellite: GOES 12
Catalog number: 26871
Epoch time:      102361.38811116
Element set:     743 
Inclination:        0.4189 deg
RA of node:        98.5123 deg
Eccentricity:    0.0001766
Arg of perigee:    76.3069 deg
Mean anomaly:     315.7365 deg
Mean motion:    1.00262241 rev/day
Decay rate:   -7.9000E-007 rev/day^2
Epoch rev:             530
Checksum:              272

Satellite: STARSHINE 3
Catalog number: 26929
Epoch time:      102362.19335966
Element set:     613 
Inclination:       67.0260 deg
RA of node:       139.3225 deg
Eccentricity:    0.0003824
Arg of perigee:   306.2719 deg
Mean anomaly:      53.8207 deg
Mean motion:   15.95113644 rev/day
Decay rate:    3.6677E-003 rev/day^2
Epoch rev:            7048
Checksum:              311

Satellite: PCSAT
Catalog number: 26931
Epoch time:      102361.82651547
Element set:     362 
Inclination:       67.0484 deg
RA of node:        31.3910 deg
Eccentricity:    0.0005477
Arg of perigee:   255.3120 deg
Mean anomaly:     104.7375 deg
Mean motion:   14.29082752 rev/day
Decay rate:    5.0200E-006 rev/day^2
Epoch rev:            6481
Checksum:              278

Satellite: SAPPHIRE
Catalog number: 26932
Epoch time:      102361.88128935
Element set:     357 
Inclination:       67.0577 deg
RA of node:        30.9685 deg
Eccentricity:    0.0006828
Arg of perigee:   240.7140 deg
Mean anomaly:     119.3282 deg
Mean motion:   14.29271553 rev/day
Decay rate:    3.7100E-006 rev/day^2
Epoch rev:            6484
Checksum:              312

Satellite: ENVISAT
Catalog number: 27386
Epoch time:      102362.21973062
Element set:     791 
Inclination:       98.5514 deg
RA of node:        66.5200 deg
Eccentricity:    0.0000892
Arg of perigee:   103.2379 deg
Mean anomaly:     256.8913 deg
Mean motion:   14.32246580 rev/day
Decay rate:    4.3099E-006 rev/day^2
Epoch rev:            4325
Checksum:              306

